Simultaneous Nadir Overpasses (SNOs) Predictions

Prediction of SNOs between METOP-B and TERRA Satellite Orbit:

Table of predicted SNOs for the next 14.0 days since TLE Epoch: 12/20/2014
Index Date (METOP-B) Time (METOP-B) Lat,Lon (METOP-B) SZA (METOP-B ) Date (TERRA) Time (TERRA) Lat,Lon (TERRA) SZA (TERRA ) Distance(km) Time Diff (sec)
1 12/20/2014 03:29:18 81.28, 174.53 107.36 12/20/2014 03:29:25 81.28, 174.50 107.36 0.60 7
2 12/20/2014 04:19:59 -81.28, -18.07 72.64 12/20/2014 04:18:52 -81.27, -17.98 72.66 1.53 67
3 12/22/2014 22:13:03 -81.27, 73.21 72.72 12/22/2014 22:14:14 -81.27, 73.17 72.69 0.86 71
4 12/22/2014 23:03:42 81.28,-118.90 107.35 12/22/2014 23:03:40 81.28,-119.06 107.33 2.68 2
5 12/25/2014 17:47:28 -81.27, 139.70 72.80 12/25/2014 17:48:29 -81.28, 139.69 72.77 0.66 61
6 12/25/2014 18:38:07 81.28, -52.43 107.27 12/25/2014 18:37:55 81.28, -52.56 107.25 2.23 12
7 12/28/2014 13:21:53 -81.27,-153.93 72.95 12/28/2014 13:22:44 -81.26,-154.11 72.96 3.21 51
8 12/28/2014 14:12:33 81.27, 13.54 107.07 12/28/2014 14:12:10 81.27, 13.61 107.06 1.31 23
9 12/31/2014 08:56:17 -81.27, -87.66 73.18 12/31/2014 08:56:56 -81.27, -87.48 73.14 3.06 39




NCC Satellite Simultaneous Nadir Overpasses (SNOs) Prediction Service
